SL-16 DEB, 22816

Orbit data source: Space-Track

SL-16 DEB, 22816 is space debris in LEO originally from a launch on Fri, 25 Dec 1992 UTC launched from the Tyuratam Missile And Space Complex (TTMTR). Debris objects in space refer to the collection of defunct objects orbiting the Earth. Examples of debris include non-operational satellites, rocket bodies, and fragments generated from explosions, collisions, or faulty payload assembly.

Loading next visibility...
Identifier
22816, 1992-093JC
Orbit
LEO
Country
Flag of CISCIS
Related business
Manufacturer
Unknown
Mission
Spacecraft
Bus & Motor
Unknown
Mass
Unknown
Launch date (UTC)
1992-12-25 (33 years ago)
Launch vehicle
Unknown
Launch site
Tyuratam Missile And Space Complex (TTMTR)
Object type
Payload
Rocket body
Debris
Shape & HBR
Unknown shape, 0.1 m
Radar Cross Section
Small (<0.1 m²)

Expand to show TLE details & history
Last TLE update: 2 days ago

TLE from 2 days ago
0 SL-16 DEB
1 22816U 92093JC  26036.02911358  .00052208  00000-0  73529-2 0  9993
2 22816  71.4434  45.5892 0047867 211.5333 148.2955 14.76204569690156
Epoch: 2026-02-05T00:41Z
TLE epoch observation values (Epoch: 2026-02-05T00:41:55.413Z)
Latitude
-0.00001°
Longitude
-100.0789°
Altitude
672.463 km
Speed
7.506 km/s
True Right ascension
03h 02m 21s
True Declination
0° 00' 00"
Sunlit
Object was in daylight at epoch
Visualization orbit readout
Latitude
Unknown
Longitude
Unknown
Altitude
Unknown
Speed
Unknown
Apparent Right ascension
Unknown
Apparent Declination
Unknown
Sunlit
N/A
Visualization observer readout
Local Sidereal Time
23:56:05
Azimuth
Unknown
Elevation
Unknown
Doppler factor
Unknown
Orbital elements
Apogee altitude
672.741 km
Perigee altitude
605.561 km
Semi-major axis
7,017.288 km
Eccentricity
0.00479
Inclination
71.4434°
RAAN
45.5892°
Arg. of periapsis
211.5333°
True anomaly
148.5823°
Mean anomaly
148.2955°
Eccentric anomaly
148.43905°
Mean motion
3.69223 °/min
Orbital period
97.5 mins
BSTAR
0.0073529
Loading maneuver chart data...
Computing Atmospheric mass density...

Documentation

Showing up to 5 results
|